Fort Polk, LA

2:03 PM CDT on March 26, 2017 (GMT -0500)
Fort Polk

Weather History for KDNK - April, 2013

Change the Weather History Date:

Wednesday, April 24, 2013

  Actual Average (KPOE) Record (KPOE)
Temperature  
Mean Temperature 58 °F -  
Max Temperature 71 °F 77 °F 88 °F (2011)
Min Temperature 46 °F 56 °F 46 °F (1998)
Degree Days  
Heating Degree Days 6    
Growing Degree Days 8 (Base 50)    
Moisture  
Dew Point 50 °F    
Average Humidity 81    
Maximum Humidity 94    
Minimum Humidity 58    
Precipitation  
Precipitation 0.83 in - - ()
Sea Level Pressure  
Sea Level Pressure 30.12 in    
Wind  
Wind Speed 9 mph (North)    
Max Wind Speed 18 mph    
Max Gust Speed 28 mph    
Visibility 9 miles    
Events Rain , Thunderstorm    
Averages and records for this station are not official NWS values.
T = Trace of Precipitation, MM = Missing Value Source: NWS Daily Summary

Daily Weather History Graph

Daily Weather History Graph

Search for Another Location

Airport or City:

Trip Planner

Search our weather history database for the weather conditions in past years. The results will help you decide how hot, cold, wet, or windy it might be!

Date:

Astronomy

Apr. 24, 2013 Rise Set
Actual Time 6:33 AM CDT 7:46 PM CDT
Civil Twilight 6:08 AM CDT 8:12 PM CDT
Nautical Twilight 5:38 AM CDT 8:42 PM CDT
Astronomical Twilight 5:07 AM CDT 9:13 PM CDT
Moon 6:52 PM CDT (4/24) 5:33 AM CDT (4/24)
Length of Visible Light 14h 03m
Length of Day
13h 12m
Waxing Gibbous, 98% of the Moon is Illuminated
Apr 24
Waxing Gibbous
Apr 25
Full
May 2
Last Quarter
May 9
New
May 17
First Quarter

Hourly Weather History & Observations

Time (CDT) Temp. Dew Point Humidity Pressure Visibility Wind Dir Wind Speed Gust Speed Precip Events Conditions
12:53 AM 71.1 °F 66.9 °F 87% 29.99 in 10.0 mi South 4.6 mph - N/A   Overcast
1:53 AM 71.1 °F 66.9 °F 87% 29.98 in 10.0 mi South 6.9 mph - N/A   Overcast
2:06 AM 71.6 °F 66.2 °F 83% 29.98 in 10.0 mi South 3.5 mph - N/A   Overcast
2:53 AM 71.1 °F 66.9 °F 87% 29.97 in 10.0 mi South 4.6 mph - N/A   Overcast
3:53 AM 71.1 °F 66.9 °F 87% 29.94 in 10.0 mi South 9.2 mph - N/A   Overcast
4:29 AM 71.6 °F 66.2 °F 83% 29.95 in 10.0 mi SSW 6.9 mph - N/A   Overcast
4:36 AM 68.0 °F 64.4 °F 88% 29.96 in 10.0 mi NW 18.4 mph 25.3 mph 0.00 in Rain Light Rain
4:48 AM 59.0 °F 55.4 °F 88% 29.98 in 10.0 mi NW 16.1 mph 25.3 mph 0.01 in Rain , Thunderstorm Thunderstorms and Rain
4:53 AM 57.0 °F 55.0 °F 93% 29.98 in 8.0 mi NW 12.7 mph 25.3 mph 0.03 in Rain , Thunderstorm Thunderstorms and Rain
5:32 AM 53.6 °F 51.8 °F 94% 30.02 in 2.5 mi NNW 13.8 mph - 0.31 in Rain , Thunderstorm Heavy Thunderstorms and Rain
5:46 AM 51.8 °F 50.0 °F 94% 30.05 in 3.0 mi NNW 13.8 mph 25.3 mph 0.48 in Rain , Thunderstorm Heavy Thunderstorms and Rain
5:53 AM 51.1 °F 48.0 °F 89% 30.06 in 2.0 mi NW 11.5 mph 25.3 mph 0.66 in Rain , Thunderstorm Heavy Thunderstorms and Rain
5:59 AM 50.0 °F 48.2 °F 94% 30.06 in 3.0 mi NW 16.1 mph 23.0 mph 0.03 in Rain , Thunderstorm Heavy Thunderstorms and Rain
6:31 AM 48.2 °F 46.4 °F 93% 30.08 in 10.0 mi NNW 12.7 mph 27.6 mph 0.09 in   Overcast
6:53 AM 48.9 °F 45.0 °F 86% 30.09 in 10.0 mi NNW 10.4 mph 17.3 mph 0.09 in   Overcast
7:53 AM 48.0 °F 46.0 °F 93% 30.13 in 10.0 mi North 10.4 mph - 0.04 in   Overcast
8:53 AM 46.9 °F 44.1 °F 90% 30.14 in 9.0 mi North 12.7 mph 20.7 mph 0.01 in Rain Light Rain
9:05 AM 48.2 °F 44.6 °F 87% 30.15 in 10.0 mi NNW 10.4 mph 19.6 mph 0.00 in   Overcast
9:53 AM 48.0 °F 45.0 °F 89% 30.18 in 10.0 mi NNW 10.4 mph 19.6 mph 0.00 in   Overcast
10:16 AM 48.2 °F 44.6 °F 87% 30.19 in 10.0 mi North 10.4 mph 20.7 mph N/A   Overcast
10:46 AM 48.2 °F 44.6 °F 87% 30.20 in 10.0 mi North 9.2 mph 19.6 mph N/A   Overcast
10:53 AM 48.9 °F 44.1 °F 83% 30.21 in 10.0 mi NNW 10.4 mph 19.6 mph N/A   Overcast
11:12 AM 48.2 °F 44.6 °F 87% 30.21 in 10.0 mi North 11.5 mph 19.6 mph N/A   Overcast
11:32 AM 50.0 °F 44.6 °F 82% 30.20 in 10.0 mi North 11.5 mph 18.4 mph N/A   Overcast
11:53 AM 51.1 °F 44.1 °F 77% 30.20 in 10.0 mi North 13.8 mph 20.7 mph N/A   Overcast
12:45 PM 55.4 °F 46.4 °F 72% 30.20 in 10.0 mi NNE 15.0 mph 21.9 mph N/A   Overcast
12:53 PM 53.1 °F 45.0 °F 74% 30.20 in 10.0 mi North 12.7 mph 19.6 mph N/A   Overcast
1:45 PM 57.2 °F 46.4 °F 67% 30.19 in - NE 15.0 mph 20.7 mph N/A   Scattered Clouds
1:53 PM 57.9 °F 46.0 °F 65% 30.18 in - North 9.2 mph 20.7 mph N/A   Scattered Clouds
2:31 PM 59.0 °F 46.4 °F 63% 30.18 in - North 9.2 mph - N/A   Mostly Cloudy
2:53 PM 62.1 °F 48.0 °F 60% 30.17 in 10.0 mi North 11.5 mph 17.3 mph N/A   Scattered Clouds
3:53 PM 63.0 °F 48.0 °F 58% 30.14 in 10.0 mi NE 11.5 mph 17.3 mph N/A   Clear
4:53 PM 63.0 °F 48.0 °F 58% 30.13 in 10.0 mi NE 11.5 mph 19.6 mph N/A   Clear
5:53 PM 63.0 °F 48.0 °F 58% 30.14 in 10.0 mi North 12.7 mph 16.1 mph N/A   Clear
6:53 PM 62.1 °F 48.0 °F 60% 30.16 in 10.0 mi NE 8.1 mph - N/A   Clear
7:53 PM 57.9 °F 48.0 °F 70% 30.19 in 10.0 mi NE 5.8 mph - N/A   Clear
8:53 PM 54.0 °F 48.0 °F 80% 30.21 in 10.0 mi NE 6.9 mph - N/A   Clear
9:53 PM 53.1 °F 48.0 °F 83% 30.23 in 10.0 mi NE 5.8 mph - N/A   Clear
10:53 PM 51.1 °F 46.9 °F 86% 30.24 in 10.0 mi ENE 9.2 mph - N/A   Clear
11:53 PM 51.1 °F 46.0 °F 83% 30.25 in 10.0 mi NE 5.8 mph - N/A   Clear